Вернуться в каталог

STARLINK-4007

АктивенСвязьVLEO
NORAD 52707·PAYLOAD·🇺🇸 United States

Запущен May 18, 2022 с Cape Canaveral Space Force Station

Loading…

Ближайшие Пролёты (ближайшие 24 часа)

TLE

СвежийSource: CelesTrak SupGP

Эпоха: Sep 14, 2026, 21:54 UTC

1 52707C 22053BD  26257.91298611 -.00017461  00000+0 -96648-3 0  2575
2 52707  53.2150   2.1834 0001440  50.9854 118.2378 15.13351048    19

Отслеживайте STARLINK-4007 в реальном времени с AllMySat

Download on the App Store